Time,TemperatureF,DewpointF,PressureIn,WindDirection,WindDirectionDegrees,WindSpeedMPH,WindSpeedGustMPH,Humidity,HourlyPrecipIn,Conditions,Clouds,dailyrainin,SoftwareType,DateUTC
2013-09-09 00:00:00,73.4,70.3,29.99,SSW,192,0.0,0.0,90,0.00,,,0.00,Wunderground v.1.15,2013-09-09 05:00:00,
2013-09-09 00:10:00,73.3,70.2,29.98,SSW,192,0.0,0.0,90,0.00,,,0.00,Wunderground v.1.15,2013-09-09 05:10:00,
2013-09-09 00:20:00,73.2,70.1,29.98,SSW,192,0.0,0.0,90,0.00,,,0.00,Wunderground v.1.15,2013-09-09 05:20:00,
2013-09-09 00:30:00,73.0,69.9,29.98,SSW,192,0.0,0.0,90,0.00,,,0.00,Wunderground v.1.15,2013-09-09 05:30:00,
2013-09-09 00:40:00,72.9,69.8,29.98,SSW,192,0.0,0.0,90,0.00,,,0.00,Wunderground v.1.15,2013-09-09 05:40:00,
2013-09-09 00:50:00,72.9,69.8,29.98,SSW,192,0.0,0.0,90,0.00,,,0.00,Wunderground v.1.15,2013-09-09 05:50:00,
2013-09-09 01:00:00,72.7,69.6,29.98,SSW,192,0.0,0.0,90,0.00,,,0.00,Wunderground v.1.15,2013-09-09 06:00:00,
2013-09-09 01:10:00,72.5,69.4,29.98,SSW,192,0.0,0.0,90,0.00,,,0.00,Wunderground v.1.15,2013-09-09 06:10:00,
2013-09-09 01:20:00,72.5,69.4,29.98,SSW,192,0.0,0.0,90,0.00,,,0.00,Wunderground v.1.15,2013-09-09 06:20:00,
2013-09-09 01:30:00,72.5,69.4,29.98,SSW,192,0.0,0.0,90,0.00,,,0.00,Wunderground v.1.15,2013-09-09 06:30:00,
2013-09-09 01:40:00,72.4,69.6,29.98,SSW,192,0.0,0.0,91,0.00,,,0.00,Wunderground v.1.15,2013-09-09 06:40:00,
2013-09-09 01:50:00,72.2,69.4,29.98,SSW,192,0.0,0.0,91,0.00,,,0.00,Wunderground v.1.15,2013-09-09 06:50:00,
2013-09-09 02:00:00,72.1,69.3,29.98,SSW,192,0.0,0.0,91,0.00,,,0.00,Wunderground v.1.15,2013-09-09 07:00:00,
2013-09-09 02:10:00,72.1,69.3,29.98,SSW,192,0.0,0.0,91,0.00,,,0.00,Wunderground v.1.15,2013-09-09 07:10:00,
2013-09-09 02:20:00,72.0,69.2,29.98,SSW,192,0.0,0.0,91,0.00,,,0.00,Wunderground v.1.15,2013-09-09 07:20:00,
2013-09-09 02:30:00,72.0,69.2,29.98,SSW,192,0.0,0.0,91,0.00,,,0.00,Wunderground v.1.15,2013-09-09 07:30:00,
2013-09-09 02:40:00,71.9,69.1,29.98,SSW,192,0.0,0.0,91,0.00,,,0.00,Wunderground v.1.15,2013-09-09 07:40:00,
2013-09-09 02:50:00,71.9,69.1,29.98,SSW,192,0.0,0.0,91,0.00,,,0.00,Wunderground v.1.15,2013-09-09 07:50:00,
2013-09-09 03:00:00,71.8,69.0,29.98,SSW,192,0.0,0.0,91,0.00,,,0.00,Wunderground v.1.15,2013-09-09 08:00:00,
2013-09-09 03:10:00,71.7,68.9,29.98,SSW,192,0.0,0.0,91,0.00,,,0.00,Wunderground v.1.15,2013-09-09 08:10:00,
2013-09-09 03:20:00,71.6,68.8,29.98,SSW,192,0.0,0.0,91,0.00,,,0.00,Wunderground v.1.15,2013-09-09 08:20:00,
2013-09-09 03:30:00,71.6,68.8,29.98,SSW,192,0.0,0.0,91,0.00,,,0.00,Wunderground v.1.15,2013-09-09 08:30:00,
2013-09-09 03:40:00,71.5,68.7,29.98,SSW,192,0.0,0.0,91,0.00,,,0.00,Wunderground v.1.15,2013-09-09 08:40:00,
2013-09-09 03:50:00,71.5,68.7,29.98,SSW,192,0.0,0.0,91,0.00,,,0.00,Wunderground v.1.15,2013-09-09 08:50:00,
2013-09-09 04:00:00,71.5,68.7,29.98,SSW,192,0.0,0.0,91,0.00,,,0.00,Wunderground v.1.15,2013-09-09 09:00:00,
2013-09-09 04:10:00,71.3,68.5,29.99,SSW,192,0.0,0.0,91,0.00,,,0.00,Wunderground v.1.15,2013-09-09 09:10:00,
2013-09-09 04:20:00,71.3,68.5,29.99,SSW,192,0.0,0.0,91,0.00,,,0.00,Wunderground v.1.15,2013-09-09 09:20:00,
2013-09-09 04:30:00,71.2,68.4,29.99,SSW,192,0.0,0.0,91,0.00,,,0.00,Wunderground v.1.15,2013-09-09 09:30:00,
2013-09-09 04:40:00,71.2,68.4,30.00,SSW,192,0.0,0.0,91,0.00,,,0.00,Wunderground v.1.15,2013-09-09 09:40:00,
2013-09-09 04:50:00,71.2,68.4,30.00,SSW,192,0.0,0.0,91,0.00,,,0.00,Wunderground v.1.15,2013-09-09 09:50:00,
2013-09-09 05:00:00,71.0,68.2,29.99,SSW,192,0.0,0.0,91,0.00,,,0.00,Wunderground v.1.15,2013-09-09 10:00:00,
2013-09-09 05:10:00,71.0,68.2,30.00,SSW,192,0.0,0.0,91,0.00,,,0.00,Wunderground v.1.15,2013-09-09 10:10:00,
2013-09-09 05:20:00,70.9,68.1,30.00,SSW,192,0.0,0.0,91,0.00,,,0.00,Wunderground v.1.15,2013-09-09 10:20:00,
2013-09-09 05:30:00,70.8,68.0,30.01,SSW,192,0.0,0.0,91,0.00,,,0.00,Wunderground v.1.15,2013-09-09 10:30:00,
2013-09-09 05:40:00,70.7,68.3,30.01,SSW,192,0.0,0.0,92,0.00,,,0.00,Wunderground v.1.15,2013-09-09 10:40:00,
2013-09-09 05:50:00,70.7,67.9,30.01,SSW,192,0.0,0.0,91,0.00,,,0.00,Wunderground v.1.15,2013-09-09 10:50:00,
2013-09-09 06:00:00,70.6,67.8,30.01,SSW,192,0.0,0.0,91,0.00,,,0.00,Wunderground v.1.15,2013-09-09 11:00:00,
2013-09-09 06:10:00,70.6,67.8,30.01,SSW,192,0.0,0.0,91,0.00,,,0.00,Wunderground v.1.15,2013-09-09 11:10:00,
2013-09-09 06:20:00,70.6,67.8,30.01,SSW,192,0.0,0.0,91,0.00,,,0.00,Wunderground v.1.15,2013-09-09 11:20:00,
2013-09-09 06:30:00,70.4,67.6,30.01,SSW,192,0.0,0.0,91,0.00,,,0.00,Wunderground v.1.15,2013-09-09 11:30:00,
2013-09-09 06:40:00,70.4,67.6,30.01,SSW,192,0.0,0.0,91,0.00,,,0.00,Wunderground v.1.15,2013-09-09 11:40:00,
2013-09-09 06:50:00,70.4,68.0,30.02,SSW,192,0.0,0.0,92,0.00,,,0.00,Wunderground v.1.15,2013-09-09 11:50:00,
2013-09-09 07:00:00,70.4,68.0,30.02,SSW,192,0.0,0.0,92,0.00,,,0.00,Wunderground v.1.15,2013-09-09 12:00:00,
2013-09-09 07:10:00,70.5,68.1,30.02,SSW,192,0.0,0.0,92,0.00,,,0.00,Wunderground v.1.15,2013-09-09 12:10:00,
2013-09-09 07:20:00,70.5,68.1,30.02,SSW,192,0.0,0.0,92,0.00,,,0.00,Wunderground v.1.15,2013-09-09 12:20:00,
2013-09-09 07:30:00,70.8,68.4,30.03,SSW,192,0.0,0.0,92,0.00,,,0.00,Wunderground v.1.15,2013-09-09 12:30:00,
2013-09-09 07:40:00,71.1,68.7,30.02,SSW,192,0.0,0.0,92,0.00,,,0.00,Wunderground v.1.15,2013-09-09 12:40:00,
2013-09-09 07:50:00,71.5,69.1,30.03,SSW,192,0.0,0.0,92,0.00,,,0.00,Wunderground v.1.15,2013-09-09 12:50:00,
2013-09-09 08:00:00,71.9,69.4,30.03,SSW,192,0.0,0.0,92,0.00,,,0.00,Wunderground v.1.15,2013-09-09 13:00:00,
2013-09-09 08:10:00,72.1,69.6,30.04,SSW,192,0.0,0.0,92,0.00,,,0.00,Wunderground v.1.15,2013-09-09 13:10:00,
2013-09-09 08:20:00,72.6,70.1,30.04,SSW,192,0.0,0.0,92,0.00,,,0.00,Wunderground v.1.15,2013-09-09 13:20:00,
2013-09-09 08:30:00,73.1,70.6,30.04,SSW,192,0.0,0.0,92,0.00,,,0.00,Wunderground v.1.15,2013-09-09 13:30:00,
2013-09-09 08:40:00,73.9,71.4,30.05,SSW,192,0.0,0.0,92,0.00,,,0.00,Wunderground v.1.15,2013-09-09 13:40:00,
2013-09-09 08:50:00,74.9,72.7,30.04,SSW,192,0.0,0.0,93,0.00,,,0.00,Wunderground v.1.15,2013-09-09 13:50:00,
2013-09-09 09:00:00,76.1,73.9,30.05,SSW,192,0.0,0.0,93,0.00,,,0.00,Wunderground v.1.15,2013-09-09 14:00:00,
2013-09-09 09:10:00,76.6,74.4,30.05,ENE,76,0.0,0.0,93,0.00,,,0.00,Wunderground v.1.15,2013-09-09 14:10:00,
2013-09-09 09:20:00,76.7,74.5,30.05,North,355,0.0,0.0,93,0.00,,,0.00,Wunderground v.1.15,2013-09-09 14:20:00,
2013-09-09 09:30:00,78.0,73.8,30.05,NE,39,1.0,1.0,87,0.00,,,0.00,Wunderground v.1.15,2013-09-09 14:30:00,
2013-09-09 09:40:00,79.0,73.7,30.05,NNE,28,1.0,6.0,84,0.00,,,0.00,Wunderground v.1.15,2013-09-09 14:40:00,
2013-09-09 09:50:00,80.3,73.2,30.06,NNE,13,1.0,3.0,79,0.00,,,0.00,Wunderground v.1.15,2013-09-09 14:50:00,
2013-09-09 10:00:00,81.6,73.7,30.06,ENE,65,1.0,1.0,77,0.00,,,0.00,Wunderground v.1.15,2013-09-09 15:00:00,
2013-09-09 10:10:00,82.3,74.4,30.06,NNE,23,1.0,1.0,77,0.00,,,0.00,Wunderground v.1.15,2013-09-09 15:10:00,
2013-09-09 10:20:00,83.2,74.4,30.06,NNE,15,1.0,1.0,75,0.00,,,0.00,Wunderground v.1.15,2013-09-09 15:20:00,
2013-09-09 10:30:00,84.0,74.4,30.05,North,360,1.0,3.0,73,0.00,,,0.00,Wunderground v.1.15,2013-09-09 15:30:00,
2013-09-09 10:40:00,84.7,74.7,30.05,NNE,12,1.0,1.0,72,0.00,,,0.00,Wunderground v.1.15,2013-09-09 15:40:00,
2013-09-09 10:50:00,84.5,73.6,30.05,NNE,31,0.0,0.0,70,0.00,,,0.00,Wunderground v.1.15,2013-09-09 15:50:00,
2013-09-09 11:00:00,84.7,75.9,30.05,NNE,31,0.0,0.0,75,0.00,,,0.00,Wunderground v.1.15,2013-09-09 16:00:00,
2013-09-09 11:10:00,85.3,74.8,30.05,NNE,28,1.0,1.0,71,0.00,,,0.00,Wunderground v.1.15,2013-09-09 16:10:00,
2013-09-09 11:20:00,85.9,74.5,30.05,NNE,26,0.0,0.0,69,0.00,,,0.00,Wunderground v.1.15,2013-09-09 16:20:00,
2013-09-09 11:30:00,86.2,74.0,30.05,NNE,26,0.0,2.0,67,0.00,,,0.00,Wunderground v.1.15,2013-09-09 16:30:00,
2013-09-09 11:40:00,86.6,75.2,30.05,NNE,24,1.0,1.0,69,0.00,,,0.00,Wunderground v.1.15,2013-09-09 16:40:00,
2013-09-09 11:50:00,86.7,74.0,30.05,NE,48,1.0,1.0,66,0.00,,,0.00,Wunderground v.1.15,2013-09-09 16:50:00,
2013-09-09 12:00:00,86.9,72.3,30.05,North,5,1.0,6.0,62,0.00,,,0.00,Wunderground v.1.15,2013-09-09 17:00:00,
2013-09-09 12:10:00,87.0,74.7,30.05,East,79,0.0,2.0,67,0.00,,,0.00,Wunderground v.1.15,2013-09-09 17:10:00,
2013-09-09 12:20:00,87.0,73.3,30.05,NNE,26,0.0,0.0,64,0.00,,,0.00,Wunderground v.1.15,2013-09-09 17:20:00,
2013-09-09 12:30:00,87.3,71.7,30.05,NE,36,0.0,3.0,60,0.00,,,0.00,Wunderground v.1.15,2013-09-09 17:30:00,
2013-09-09 12:40:00,87.9,70.2,30.05,NE,43,1.0,1.0,56,0.00,,,0.00,Wunderground v.1.15,2013-09-09 17:40:00,
2013-09-09 12:50:00,87.9,69.7,30.04,NE,43,0.0,0.0,55,0.00,,,0.00,Wunderground v.1.15,2013-09-09 17:50:00,
2013-09-09 13:00:00,88.3,72.2,30.04,NE,42,0.0,0.0,59,0.00,,,0.00,Wunderground v.1.15,2013-09-09 18:00:00,
2013-09-09 13:10:00,87.8,72.7,30.04,SSW,210,0.0,0.0,61,0.00,,,0.00,Wunderground v.1.15,2013-09-09 18:10:00,
2013-09-09 13:20:00,88.2,70.5,30.04,SSW,210,0.0,0.0,56,0.00,,,0.00,Wunderground v.1.15,2013-09-09 18:20:00,
2013-09-09 13:30:00,88.5,71.3,30.03,SSW,208,0.0,0.0,57,0.00,,,0.00,Wunderground v.1.15,2013-09-09 18:30:00,
2013-09-09 13:40:00,88.6,71.9,30.04,SSW,208,0.0,0.0,58,0.00,,,0.00,Wunderground v.1.15,2013-09-09 18:40:00,
2013-09-09 13:50:00,88.6,70.4,30.03,SSW,208,0.0,0.0,55,0.00,,,0.00,Wunderground v.1.15,2013-09-09 18:50:00,
2013-09-09 14:00:00,89.2,72.0,30.02,SE,132,0.0,0.0,57,0.00,,,0.00,Wunderground v.1.15,2013-09-09 19:00:00,
2013-09-09 14:10:00,89.7,72.4,30.02,SE,132,0.0,0.0,57,0.00,,,0.00,Wunderground v.1.15,2013-09-09 19:10:00,
2013-09-09 14:20:00,89.6,71.8,30.02,South,186,0.0,0.0,56,0.00,,,0.00,Wunderground v.1.15,2013-09-09 19:20:00,
2013-09-09 14:30:00,89.4,73.7,30.02,South,186,0.0,0.0,60,0.00,,,0.00,Wunderground v.1.15,2013-09-09 19:30:00,
2013-09-09 14:40:00,89.5,74.3,30.01,South,173,0.0,1.0,61,0.00,,,0.00,Wunderground v.1.15,2013-09-09 19:40:00,
2013-09-09 14:50:00,89.2,74.0,30.01,South,173,0.0,0.0,61,0.00,,,0.00,Wunderground v.1.15,2013-09-09 19:50:00,
2013-09-09 15:00:00,88.9,72.2,30.01,South,173,0.0,0.0,58,0.00,,,0.00,Wunderground v.1.15,2013-09-09 20:00:00,
2013-09-09 15:10:00,89.2,72.0,30.01,South,173,0.0,0.0,57,0.00,,,0.00,Wunderground v.1.15,2013-09-09 20:10:00,
2013-09-09 15:20:00,89.5,73.3,30.01,South,177,0.0,0.0,59,0.00,,,0.00,Wunderground v.1.15,2013-09-09 20:20:00,
2013-09-09 15:30:00,89.7,73.0,30.01,South,186,0.0,0.0,58,0.00,,,0.00,Wunderground v.1.15,2013-09-09 20:30:00,
2013-09-09 15:40:00,89.3,75.5,30.00,South,186,0.0,0.0,64,0.00,,,0.00,Wunderground v.1.15,2013-09-09 20:40:00,
2013-09-09 15:50:00,88.7,74.0,30.00,South,186,0.0,0.0,62,0.00,,,0.00,Wunderground v.1.15,2013-09-09 20:50:00,
2013-09-09 16:00:00,88.1,72.5,30.00,South,186,0.0,0.0,60,0.00,,,0.00,Wunderground v.1.15,2013-09-09 21:00:00,
2013-09-09 16:10:00,88.3,72.7,30.00,South,186,0.0,0.0,60,0.00,,,0.00,Wunderground v.1.15,2013-09-09 21:10:00,
2013-09-09 16:20:00,87.5,71.9,30.00,SSW,193,0.0,0.0,60,0.00,,,0.00,Wunderground v.1.15,2013-09-09 21:20:00,
2013-09-09 16:30:00,86.7,72.1,30.00,SSW,192,0.0,0.0,62,0.00,,,0.00,Wunderground v.1.15,2013-09-09 21:30:00,
2013-09-09 16:40:00,86.5,74.7,30.00,SSW,193,0.0,0.0,68,0.00,,,0.00,Wunderground v.1.15,2013-09-09 21:40:00,
2013-09-09 16:50:00,86.1,71.1,30.00,SSW,193,0.0,0.0,61,0.00,,,0.00,Wunderground v.1.15,2013-09-09 21:50:00,
2013-09-09 17:00:00,85.9,72.8,30.00,SSW,204,0.0,0.0,65,0.00,,,0.00,Wunderground v.1.15,2013-09-09 22:00:00,
2013-09-09 17:10:00,85.4,74.1,30.00,SSW,194,0.0,0.0,69,0.00,,,0.00,Wunderground v.1.15,2013-09-09 22:10:00,
2013-09-09 17:20:00,84.9,73.2,30.00,SSW,194,0.0,0.0,68,0.00,,,0.00,Wunderground v.1.15,2013-09-09 22:20:00,
2013-09-09 17:30:00,84.5,72.8,30.00,SSW,194,0.0,0.0,68,0.00,,,0.00,Wunderground v.1.15,2013-09-09 22:30:00,
2013-09-09 17:40:00,84.1,72.8,30.00,SSW,194,0.0,0.0,69,0.00,,,0.00,Wunderground v.1.15,2013-09-09 22:40:00,
2013-09-09 17:50:00,83.9,73.9,30.00,SSW,194,0.0,0.0,72,0.00,,,0.00,Wunderground v.1.15,2013-09-09 22:50:00,
2013-09-09 18:00:00,83.6,74.4,30.00,SSW,194,0.0,0.0,74,0.00,,,0.00,Wunderground v.1.15,2013-09-09 23:00:00,
2013-09-09 18:10:00,83.3,74.5,30.00,SSW,194,0.0,0.0,75,0.00,,,0.00,Wunderground v.1.15,2013-09-09 23:10:00,
2013-09-09 18:20:00,82.8,74.1,30.00,SSW,194,0.0,0.0,75,0.00,,,0.00,Wunderground v.1.15,2013-09-09 23:20:00,
2013-09-09 18:30:00,82.2,73.5,30.00,SSW,194,0.0,0.0,75,0.00,,,0.00,Wunderground v.1.15,2013-09-09 23:30:00,
2013-09-09 18:40:00,81.8,73.5,30.00,SSW,194,0.0,0.0,76,0.00,,,0.00,Wunderground v.1.15,2013-09-09 23:40:00,
2013-09-09 18:50:00,81.2,73.3,30.00,SSW,194,0.0,0.0,77,0.00,,,0.00,Wunderground v.1.15,2013-09-09 23:50:00,
2013-09-09 19:00:00,80.6,71.9,30.00,SSW,194,0.0,0.0,75,0.00,,,0.00,Wunderground v.1.15,2013-09-10 00:00:00,
2013-09-09 19:10:00,80.1,73.0,30.01,SSW,194,0.0,0.0,79,0.00,,,0.00,Wunderground v.1.15,2013-09-10 00:10:00,
2013-09-09 19:20:00,79.4,71.9,30.01,SSW,194,0.0,0.0,78,0.00,,,0.00,Wunderground v.1.15,2013-09-10 00:20:00,
2013-09-09 19:30:00,78.8,72.1,30.01,SSW,194,0.0,0.0,80,0.00,,,0.00,Wunderground v.1.15,2013-09-10 00:30:00,
2013-09-09 19:40:00,78.4,71.7,30.01,SSW,194,0.0,0.0,80,0.00,,,0.00,Wunderground v.1.15,2013-09-10 00:40:00,
2013-09-09 19:50:00,77.9,71.2,30.01,SSW,194,0.0,0.0,80,0.00,,,0.00,Wunderground v.1.15,2013-09-10 00:50:00,
2013-09-09 20:00:00,77.4,71.1,30.01,SSW,194,0.0,0.0,81,0.00,,,0.00,Wunderground v.1.15,2013-09-10 01:00:00,
2013-09-09 20:10:00,77.0,71.1,30.02,SSW,194,0.0,0.0,82,0.00,,,0.00,Wunderground v.1.15,2013-09-10 01:10:00,
2013-09-09 20:20:00,76.6,71.0,30.02,SSW,194,0.0,0.0,83,0.00,,,0.00,Wunderground v.1.15,2013-09-10 01:20:00,
2013-09-09 20:30:00,76.3,71.1,30.02,SSW,194,0.0,0.0,84,0.00,,,0.00,Wunderground v.1.15,2013-09-10 01:30:00,
2013-09-09 20:40:00,76.0,71.2,30.03,SSW,194,0.0,0.0,85,0.00,,,0.00,Wunderground v.1.15,2013-09-10 01:40:00,
2013-09-09 20:50:00,75.7,70.9,30.03,SSW,194,0.0,0.0,85,0.00,,,0.00,Wunderground v.1.15,2013-09-10 01:50:00,
2013-09-09 21:00:00,75.5,70.7,30.03,SSW,194,0.0,0.0,85,0.00,,,0.00,Wunderground v.1.15,2013-09-10 02:00:00,
2013-09-09 21:10:00,75.3,70.8,30.04,SSW,194,0.0,0.0,86,0.00,,,0.00,Wunderground v.1.15,2013-09-10 02:10:00,
2013-09-09 21:20:00,75.1,70.6,30.04,SSW,194,0.0,0.0,86,0.00,,,0.00,Wunderground v.1.15,2013-09-10 02:20:00,
2013-09-09 21:30:00,75.0,70.5,30.05,SSW,194,0.0,0.0,86,0.00,,,0.00,Wunderground v.1.15,2013-09-10 02:30:00,
2013-09-09 21:40:00,74.7,70.2,30.05,SSW,194,0.0,0.0,86,0.00,,,0.00,Wunderground v.1.15,2013-09-10 02:40:00,
2013-09-09 21:50:00,74.6,70.5,30.05,SSW,194,0.0,0.0,87,0.00,,,0.00,Wunderground v.1.15,2013-09-10 02:50:00,
2013-09-09 22:00:00,74.4,70.3,30.05,SSW,194,0.0,0.0,87,0.00,,,0.00,Wunderground v.1.15,2013-09-10 03:00:00,
2013-09-09 22:10:00,74.3,70.5,30.05,SSW,194,0.0,0.0,88,0.00,,,0.00,Wunderground v.1.15,2013-09-10 03:10:00,
2013-09-09 22:20:00,74.2,70.4,30.05,SSW,194,0.0,0.0,88,0.00,,,0.00,Wunderground v.1.15,2013-09-10 03:20:00,
2013-09-09 22:30:00,74.2,70.4,30.04,SSW,194,0.0,0.0,88,0.00,,,0.00,Wunderground v.1.15,2013-09-10 03:30:00,
2013-09-09 22:40:00,74.0,70.2,30.04,SSW,194,0.0,0.0,88,0.00,,,0.00,Wunderground v.1.15,2013-09-10 03:40:00,
2013-09-09 22:50:00,73.8,70.4,30.04,SSW,194,0.0,0.0,89,0.00,,,0.00,Wunderground v.1.15,2013-09-10 03:50:00,
2013-09-09 23:00:00,73.7,70.3,30.04,SSW,194,0.0,0.0,89,0.00,,,0.00,Wunderground v.1.15,2013-09-10 04:00:00,
2013-09-09 23:10:00,73.6,70.2,30.04,SSW,194,0.0,0.0,89,0.00,,,0.00,Wunderground v.1.15,2013-09-10 04:10:00,
2013-09-09 23:20:00,73.5,70.1,30.04,SSW,194,0.0,0.0,89,0.00,,,0.00,Wunderground v.1.15,2013-09-10 04:20:00,
2013-09-09 23:30:00,73.4,70.0,30.04,SSW,194,0.0,0.0,89,0.00,,,0.00,Wunderground v.1.15,2013-09-10 04:30:00,
2013-09-09 23:40:00,73.3,70.2,30.05,SSW,194,0.0,0.0,90,0.00,,,0.00,Wunderground v.1.15,2013-09-10 04:40:00,
2013-09-09 23:50:00,73.3,70.2,30.05,SSW,194,0.0,0.0,90,0.00,,,0.00,Wunderground v.1.15,2013-09-10 04:50:00,